DW5920 Sevilla ES current weather conditions

sailwx.info

Wind from 079 at 6 knots gusting 13

Air temperature 10.6° C
Dewpoint -3.9° C

Last reported at 2018-Feb-23 10:02 UTC.
Time now 2018-Feb-23 10:51 UTC

Location: N 37°23' W 005°55'.
View on Google Maps.

See reports from other nearby stations

  
Tides and Currents Weather Stations Pressure Air Temp Water Temp Dewpoint Dewpoint Depression Visibility Wind Speed Wind Dir Waves Ship Positions
date/time (UTC)wind fromknots sea level pressurealtimeterstation pressurevisibilityair tempwater tempwave heightnotes
2018-Feb-23 10:02 079 6 gusting 13 10.6
2018-Feb-23 09:47 039 4 gusting 13 10.0
2018-Feb-23 09:32 055 6 gusting 13 9.4
2018-Feb-23 09:17 037 4 gusting 10 8.9
2018-Feb-23 09:02 049 5 gusting 12 8.3
2018-Feb-23 08:47 071 3 gusting 8 7.8
2018-Feb-23 08:32 064 3 gusting 7 6.7
2018-Feb-23 08:17 343 2 gusting 6 5.6
2018-Feb-23 08:02 040 2 gusting 5 5.0
2018-Feb-23 07:47 030 2 gusting 6 3.9
2018-Feb-23 07:32 036 0 gusting 5 3.9
2018-Feb-23 07:17 030 0 gusting 4 3.3
2018-Feb-23 07:02 040 2 gusting 6 3.3
2018-Feb-23 06:47 030 2 gusting 8 3.3
2018-Feb-23 06:32 022 2 gusting 7 3.3
2018-Feb-23 06:17 348 1 gusting 6 3.3
2018-Feb-23 06:02 307 0 gusting 3 2.8
2018-Feb-23 05:47 033 2.8
2018-Feb-23 05:32 315 0 gusting 2 2.8
2018-Feb-23 05:17 054 0 gusting 5 3.3
2018-Feb-23 05:02 053 1 gusting 5 3.9
2018-Feb-23 04:47 026 0 gusting 3 3.9
2018-Feb-23 04:32 013 0 gusting 2 3.9
2018-Feb-23 04:17 033 0 gusting 2 3.9
2018-Feb-23 04:02 037 0 gusting 2 4.4
2018-Feb-23 03:47 148 4.4
2018-Feb-23 03:32 152 4.4
2018-Feb-23 03:17 061 5.0
2018-Feb-23 03:02 011 5.6
2018-Feb-23 02:47 346 5.6
2018-Feb-23 02:32 325 5.6
2018-Feb-23 02:17 322 5.6
2018-Feb-23 02:02 149 5.0
2018-Feb-23 01:47 149 5.6
2018-Feb-23 01:32 150 5.6
2018-Feb-23 01:17 158 5.6
2018-Feb-23 01:02 124 6.1
2018-Feb-23 00:47 120 6.7
2018-Feb-23 00:32 150 6.7
2018-Feb-23 00:17 135 6.7
2018-Feb-23 00:02 197 7.2
2018-Feb-22 23:47 250 7.2
2018-Feb-22 23:32 253 7.8
2018-Feb-22 23:17 253 8.3
2018-Feb-22 23:02 253 8.9
2018-Feb-22 22:47 253 8.9
2018-Feb-22 22:32 253 9.4
2018-Feb-22 22:17 253 9.4
2018-Feb-22 22:02 184 9.4
2018-Feb-22 21:47 176 9.4
2018-Feb-22 21:32 238 9.4
2018-Feb-22 21:17 238 10.0
2018-Feb-22 21:02 240 10.6
2018-Feb-22 20:47 252 11.1
2018-Feb-22 20:32 222 1 gusting 3 11.7
2018-Feb-22 20:17 200 0 gusting 3 11.7
2018-Feb-22 20:02 208 11.7
2018-Feb-22 19:47 190 1 gusting 4 12.2
2018-Feb-22 19:32 167 1 gusting 4 12.8
2018-Feb-22 19:17 200 12.8
2018-Feb-22 19:02 217 13.3
2018-Feb-22 18:47 204 13.3
2018-Feb-22 18:32 133 14.4
2018-Feb-22 18:17 145 15.0
2018-Feb-22 18:02 218 0 gusting 4 15.6
2018-Feb-22 17:47 140 1 gusting 5 15.6
2018-Feb-22 17:32 196 1 gusting 3 16.1
2018-Feb-22 17:17 124 1 gusting 5 16.7
2018-Feb-22 17:02 115 1 gusting 4 17.8
2018-Feb-22 16:47 139 1 gusting 6 17.2
2018-Feb-22 16:32 174 1 gusting 4 17.2
2018-Feb-22 16:17 065 2 gusting 5 17.2
2018-Feb-22 16:02 131 1 gusting 3 17.8
2018-Feb-22 15:47 243 0 gusting 4 17.8
2018-Feb-22 15:32 009 0 gusting 3 17.2
2018-Feb-22 15:17 225 2 gusting 5 17.2
2018-Feb-22 15:02 063 0 gusting 3 17.2
2018-Feb-22 14:47 278 0 gusting 4 16.7
2018-Feb-22 14:32 294 0 gusting 3 16.7
2018-Feb-22 14:17 114 0 gusting 2 16.1
2018-Feb-22 14:02 285 0 gusting 4 16.1
2018-Feb-22 13:47 327 0 gusting 2 16.1
2018-Feb-22 13:32 288 0 gusting 5 15.6
2018-Feb-22 13:17 339 1 gusting 6 15.0
2018-Feb-22 13:02 353 1 gusting 5 14.4
2018-Feb-22 12:47 117 3 gusting 9 13.9
2018-Feb-22 12:32 105 1 gusting 6 13.3
2018-Feb-22 12:17 067 1 gusting 5 13.3
2018-Feb-22 12:02 054 2 gusting 6 13.3
2018-Feb-22 11:47 098 2 gusting 6 12.8
2018-Feb-22 11:32 064 2 gusting 9 12.2
2018-Feb-22 11:17 044 2 gusting 6 12.2
2018-Feb-22 11:02 081 3 gusting 8 11.7
2018-Feb-22 10:47 056 3 gusting 9 11.1
2018-Feb-22 10:32 355 4 gusting 11 11.1
2018-Feb-22 10:17 061 4 gusting 8 10.6
2018-Feb-22 10:02 037 4 gusting 11 10.6
2018-Feb-22 09:47 030 4 gusting 7 10.0
2018-Feb-22 09:32 032 2 gusting 7 9.4
2018-Feb-22 09:17 324 4 gusting 9 8.9
2018-Feb-22 09:02 067 3 gusting 8 8.3
2018-Feb-22 08:47 053 1 gusting 4 7.8
2018-Feb-22 08:32 054 0 gusting 3 6.7
2018-Feb-22 08:17 011 1 gusting 4 6.1
2018-Feb-22 08:02 039 1 gusting 2 6.1
2018-Feb-22 07:47 336 1 gusting 5 6.1
2018-Feb-22 07:32 072 1 gusting 5 5.6
2018-Feb-22 07:17 343 1 gusting 5 5.6
2018-Feb-22 07:02 006 0 gusting 2 5.0
2018-Feb-22 06:47 034 0 gusting 2 5.0
2018-Feb-22 06:32 044 0 gusting 3 5.6
2018-Feb-22 06:17 005 0 gusting 1 5.6
2018-Feb-22 06:02 055 5.6
2018-Feb-22 05:47 020 5.6
2018-Feb-22 05:32 050 0 gusting 2 5.6
2018-Feb-22 05:17 029 0 gusting 3 5.6
2018-Feb-22 05:02 025 0 gusting 2 6.1
2018-Feb-22 04:47 339 0 gusting 1 6.1
2018-Feb-22 04:32 356 0 gusting 1 6.7
2018-Feb-22 04:17 068 6.7
2018-Feb-22 04:02 029 6.7
2018-Feb-22 03:47 078 0 gusting 4 7.2
2018-Feb-22 03:32 328 0 gusting 2 7.8
2018-Feb-22 03:17 330 1 gusting 5 7.8
2018-Feb-22 03:02 316 0 gusting 4 8.3
2018-Feb-22 02:47 323 8.3
2018-Feb-22 02:32 022 0 gusting 3 8.3
2018-Feb-22 02:17 001 0 gusting 3 8.9
2018-Feb-22 02:02 032 0 gusting 2 8.9
2018-Feb-22 01:47 009 8.9
2018-Feb-22 01:32 343 8.9
2018-Feb-22 01:17 048 8.9
2018-Feb-22 01:02 334 8.9
2018-Feb-22 00:47 009 9.4
2018-Feb-22 00:32 334 0 gusting 4 9.4
2018-Feb-22 00:17 339 0 gusting 4 10.0
2018-Feb-22 00:02 078 2 gusting 5 10.0
2018-Feb-21 23:47 020 1 gusting 3 10.0
2018-Feb-21 23:32 309 0 gusting 2 10.6
2018-Feb-21 23:17 023 10.6
2018-Feb-21 23:02 030 0 gusting 2 11.1
2018-Feb-21 22:47 030 11.1
2018-Feb-21 22:32 305 11.1
2018-Feb-21 22:17 351 11.7
2018-Feb-21 22:02 091 12.2
2018-Feb-21 21:47 104 12.2
2018-Feb-21 21:32 056 0 gusting 2 12.8
2018-Feb-21 21:17 103 12.8
2018-Feb-21 21:02 094 12.8
2018-Feb-21 20:47 086 0 gusting 5 13.3
2018-Feb-21 20:32 070 1 gusting 6 13.9
2018-Feb-21 20:17 074 1 gusting 6 13.9
2018-Feb-21 20:02 084 0 gusting 5 14.4
2018-Feb-21 19:47 082 2 gusting 5 14.4
2018-Feb-21 19:32 032 1 gusting 5 15.0
2018-Feb-21 19:17 044 0 gusting 4 15.0
2018-Feb-21 19:02 342 1 gusting 6 15.6
2018-Feb-21 18:47 041 3 gusting 5 16.1
2018-Feb-21 18:32 030 2 gusting 6 16.7
2018-Feb-21 18:17 006 2 gusting 6 17.2
2018-Feb-21 18:02 060 3 gusting 10 17.8
2018-Feb-21 17:47 027 3 gusting 10 18.3
2018-Feb-21 17:32 039 4 gusting 10 18.3
2018-Feb-21 17:17 356 4 gusting 9 18.9
2018-Feb-21 17:02 016 4 gusting 12 19.4
2018-Feb-21 16:47 342 4 gusting 11 20.0
2018-Feb-21 16:32 333 6 gusting 16 20.0
2018-Feb-21 16:17 008 3 gusting 10 20.0
2018-Feb-21 16:02 342 3 gusting 9 20.0
2018-Feb-21 15:47 339 4 gusting 13 20.0
2018-Feb-21 15:32 340 3 gusting 10 20.0
2018-Feb-21 15:17 340 5 gusting 11 20.0
2018-Feb-21 14:32 128 20.0
2018-Feb-21 14:17 103 0 gusting 3 19.4
2018-Feb-21 14:02 293 1 gusting 6 18.3
2018-Feb-21 13:47 016 2 gusting 6 18.3
2018-Feb-21 13:32 015 0 gusting 5 18.9
2018-Feb-21 13:17 071 1 gusting 5 18.3
2018-Feb-21 13:02 324 1 gusting 6 17.8
2018-Feb-21 12:47 053 1 gusting 7 17.2
2018-Feb-21 12:32 098 1 gusting 8 16.7
2018-Feb-21 12:17 343 4 gusting 8 16.1
2018-Feb-21 12:02 098 4 gusting 10 15.6
2018-Feb-21 11:47 068 4 gusting 8 15.6
2018-Feb-21 11:32 075 4 gusting 10 15.6
2018-Feb-21 11:17 058 5 gusting 12 15.0
2018-Feb-21 11:02 053 4 gusting 11 15.0
2018-Feb-21 10:47 022 6 gusting 10 14.4
2018-Feb-21 10:32 050 5 gusting 11 14.4
2018-Feb-21 10:17 069 4 gusting 9 13.9
2018-Feb-21 10:02 086 4 gusting 11 13.9